QPF
0.14 0.18 0.17 0.16 0.11 0.09 0.07 0.03 0.02 0.01 0.00 0.01 0.00 0.00 0.00 0.00 0.00 0.00 0.00 0.00 0.00 0.00 0.00 0.00 0.00 0.00 0.00 0.00 0.00 0.00 0.00 0.00 0.00 0.00 0.00 0.01 0.01 0.01 0.01 0.01 0.01 0.01 0.00
0.16 0.19 0.17 0.15 0.12 0.10 0.13 0.06 0.04 0.03 0.01 0.01 0.00 0.00 0.00 0.00 0.00 0.00 0.00 0.00 0.00 0.00 0.00 0.00 0.00 0.00 0.00 0.00 0.00 0.00 0.00 0.00 0.00 0.00 0.00 0.01 0.01 0.01 0.01 0.02 0.01 0.01 0.01
0.15 0.17 0.16 0.15 0.13 0.11 0.09 0.05 0.03 0.04 0.04 0.01 0.00 0.00 0.00 0.00 0.00 0.00 0.00 0.00 0.00 0.00 0.00 0.00 0.00 0.00 0.00 0.00 0.00 0.00 0.00 0.00 0.00 0.00 0.00 0.01 0.01 0.01 0.02 0.02 0.02 0.03 0.03
0.12 0.15 0.15 0.14 0.13 0.12 0.09 0.05 0.03 0.02 0.03 0.01 0.01 0.01 0.00 0.00 0.00 0.01 0.01 0.01 0.00 0.00 0.00 0.00 0.00 0.00 0.00 0.00 0.00 0.00 0.00 0.00 0.00 0.00 0.00 0.00 0.01 0.01 0.01 0.01 0.02 0.03 0.03
0.14 0.16 0.15 0.16 0.15 0.14 0.11 0.06 0.03 0.03 0.03 0.02 0.01 0.01 0.01 0.01 0.01 0.01 0.01 0.01 0.01 0.01 0.00 0.00 0.00 0.00 0.00 0.00 0.00 0.00 0.00 0.00 0.00 0.00 0.00 0.00 0.00 0.00 0.00 0.01 0.01 0.02 0.02
0.16 0.19 0.20 0.19 0.17 0.16 0.13 0.08 0.05 0.04 0.03 0.02 0.01 0.01 0.01 0.01 0.01 0.00 0.01 0.00 0.00 0.00 0.00 0.00 0.00 0.00 0.00 0.00 0.00 0.00 0.00 0.00 0.00 0.00 0.00 0.00 0.00 0.00 0.00 0.00 0.00 0.01 0.01
0.16 0.19 0.21 0.21 0.19 0.17 0.15 0.12 0.09 0.06 0.04 0.03 0.02 0.01 0.01 0.01 0.01 0.00 0.00 0.00 0.00 0.00 0.00 0.00 0.00 0.00 0.00 0.00 0.00 0.00 0.00 0.00 0.00 0.00 0.00 0.00 0.00 0.00 0.00 0.00 0.00 0.00 0.01
0.18 0.22 0.26 0.26 0.25 0.24 0.21 0.16 0.11 0.08 0.05 0.04 0.03 0.03 0.02 0.01 0.00 0.00 0.00 0.00 0.00 0.00 0.00 0.00 0.00 0.00 0.00 0.00 0.00 0.00 0.00 0.00 0.00 0.00 0.00 0.00 0.00 0.00 0.00 0.00 0.00 0.00 0.00
0.17 0.19 0.25 0.29 0.28 0.26 0.20 0.13 0.10 0.07 0.05 0.04 0.02 0.01 0.01 0.00 0.00 0.00 0.00 0.00 0.00 0.00 0.00 0.00 0.00 0.00 0.00 0.00 0.00 0.00 0.00 0.00 0.00 0.00 0.00 0.00 0.00 0.00 0.00 0.00 0.00 0.00 0.00
0.12 0.14 0.22 0.27 0.26 0.21 0.14 0.10 0.08 0.06 0.04 0.03 0.01 0.00 0.00 0.00 0.00 0.00 0.00 0.00 0.00 0.00 0.00 0.00 0.00 0.00 0.00 0.00 0.00 0.00 0.00 0.00 0.00 0.00 0.00 0.00 0.00 0.00 0.00 0.00 0.00 0.00 0.00
0.12 0.13 0.17 0.16 0.14 0.10 0.07 0.05 0.03 0.02 0.01 0.01 0.00 0.00 0.00 0.00 0.00 0.00 0.00 0.00 0.00 0.00 0.00 0.00 0.00 0.00 0.00 0.00 0.00 0.00 0.00 0.00 0.00 0.00 0.00 0.00 0.00 0.00 0.00 0.00 0.00 0.00 0.00
0.09 0.08 0.09 0.07 0.05 0.03 0.02 0.01 0.01 0.00 0.00 0.00 0.00 0.00 0.00 0.00 0.00 0.00 0.00 0.00 0.00 0.00 0.00 0.00 0.00 0.00 0.00 0.00 0.00 0.00 0.00 0.00 0.00 0.00 0.00 0.00 0.00 0.00 0.00 0.00 0.00 0.01 0.01
0.03 0.03 0.04 0.03 0.02 0.01 0.01 0.00 0.00 0.00 0.00 0.00 0.00 0.00 0.00 0.00 0.00 0.00 0.00 0.00 0.00 0.00 0.00 0.00 0.00 0.00 0.00 0.00 0.00 0.00 0.00 0.00 0.00 0.00 0.00 0.00 0.00 0.00 0.01 0.01 0.01 0.01 0.01
0.01 0.02 0.02 0.01 0.01 0.00 0.00 0.00 0.00 0.00 0.00 0.00 0.00 0.00 0.00 0.00 0.00 0.00 0.00 0.00 0.00 0.00 0.00 0.00 0.00 0.00 0.00 0.00 0.00 0.00 0.00 0.00 0.00 0.00 0.01 0.01 0.01 0.01 0.01 0.01 0.01 0.01 0.01
0.01 0.01 0.01 0.01 0.00 0.00 0.00 0.00 0.00 0.00 0.00 0.00 0.00 0.00 0.00 0.00 0.00 0.00 0.00 0.00 0.00 0.00 0.00 0.00 0.00 0.00 0.00 0.00 0.00 0.00 0.00 0.00 0.00 0.00 0.01 0.01 0.01 0.01 0.01 0.01 0.01 0.01 0.01
0.01 0.01 0.01 0.00 0.00 0.00 0.00 0.00 0.00 0.00 0.00 0.00 0.00 0.00 0.00 0.00 0.00 0.00 0.00 0.00 0.00 0.00 0.00 0.00 0.00 0.00 0.00 0.00 0.00 0.00 0.00 0.00 0.00 0.00 0.01 0.01 0.01 0.01 0.01 0.01 0.01 0.01 0.01
0.01 0.00 0.00 0.00 0.00 0.00 0.00 0.00 0.00 0.00 0.00 0.00 0.00 0.00 0.00 0.00 0.00 0.00 0.00 0.00 0.00 0.00 0.00 0.00 0.00 0.00 0.00 0.01 0.01 0.01 0.01 0.01 0.00 0.01 0.01 0.01 0.01 0.01 0.01 0.01 0.01 0.01 0.01
0.00 0.00 0.00 0.00 0.00 0.00 0.00 0.00 0.00 0.00 0.00 0.00 0.00 0.00 0.00 0.00 0.00 0.00 0.00 0.00 0.00 0.00 0.00 0.00 0.00 0.00 0.01 0.01 0.01 0.02 0.01 0.01 0.01 0.00 0.00 0.00 0.00 0.00 0.00 0.00 0.01 0.01 0.01
0.00 0.00 0.00 0.00 0.00 0.00 0.00 0.00 0.00 0.00 0.00 0.00 0.00 0.00 0.00 0.00 0.00 0.00 0.00 0.00 0.00 0.00 0.01 0.01 0.01 0.01 0.01 0.01 0.02 0.02 0.02 0.02 0.01 0.00 0.00 0.00 0.00 0.00 0.00 0.00 0.00 0.00 0.00
0.00 0.00 0.00 0.00 0.00 0.00 0.00 0.00 0.00 0.00 0.00 0.00 0.00 0.00 0.00 0.00 0.00 0.01 0.00 0.00 0.01 0.01 0.01 0.02 0.01 0.01 0.01 0.01 0.03 0.03 0.02 0.02 0.01 0.01 0.01 0.01 0.01 0.01 0.01 0.00 0.00 0.00 0.00
0.00 0.00 0.00 0.00 0.00 0.00 0.00 0.00 0.00 0.00 0.00 0.00 0.00 0.00 0.00 0.00 0.00 0.00 0.00 0.00 0.01 0.02 0.02 0.02 0.02 0.02 0.02 0.02 0.03 0.03 0.03 0.02 0.01 0.01 0.02 0.02 0.03 0.03 0.04 0.04 0.03 0.01 0.01
0.00 0.00 0.00 0.00 0.00 0.00 0.00 0.00 0.00 0.00 0.00 0.00 0.01 0.01 0.01 0.00 0.00 0.00 0.00 0.01 0.01 0.02 0.02 0.04 0.04 0.04 0.03 0.04 0.05 0.04 0.05 0.04 0.03 0.02 0.04 0.02 0.03 0.04 0.04 0.06 0.04 0.02 0.01
0.00 0.00 0.00 0.00 0.00 0.00 0.00 0.00 0.00 0.00 0.00 0.01 0.01 0.01 0.01 0.00 0.01 0.01 0.01 0.00 0.01 0.01 0.03 0.05 0.06 0.06 0.06 0.06 0.06 0.05 0.05 0.05 0.04 0.04 0.06 0.04 0.04 0.05 0.04 0.03 0.01 0.00 0.00
0.01 0.01 0.00 0.00 0.01 0.00 0.00 0.00 0.00 0.00 0.00 0.01 0.01 0.01 0.01 0.01 0.01 0.00 0.00 0.00 0.01 0.02 0.04 0.04 0.06 0.06 0.05 0.04 0.05 0.04 0.05 0.05 0.04 0.04 0.07 0.05 0.04 0.04 0.02 0.04 0.03 0.01 0.00
0.01 0.00 0.00 0.00 0.01 0.01 0.00 0.00 0.00 0.00 0.00 0.01 0.01 0.01 0.01 0.01 0.01 0.00 0.00 0.01 0.01 0.02 0.02 0.01 0.02 0.02 0.02 0.01 0.02 0.03 0.05 0.07 0.05 0.03 0.04 0.04 0.03 0.03 0.02 0.05 0.05 0.02 0.01
0.01 0.00 0.00 0.00 0.01 0.02 0.00 0.00 0.00 0.00 0.00 0.00 0.01 0.01 0.01 0.00 0.00 0.00 0.00 0.01 0.02 0.03 0.02 0.02 0.04 0.04 0.05 0.05 0.04 0.06 0.09 0.10 0.07 0.04 0.03 0.03 0.02 0.03 0.03 0.03 0.05 0.06 0.05
MSLP
1016.93 1017.29 1017.54 1017.69 1017.77 1017.79 1017.77 1017.74 1017.69 1017.64 1017.60 1017.58 1017.61 1017.70 1017.88 1018.15 1018.51 1018.93 1019.39 1019.84 1020.25 1020.58 1020.82 1020.97 1021.05 1021.08 1021.10 1021.11 1021.14 1021.19 1021.25 1021.31 1021.35 1021.37 1021.36 1021.34 1021.30 1021.25 1021.23 1021.21 1021.22 1021.24 1021.28
1016.63 1017.01 1017.30 1017.52 1017.68 1017.78 1017.84 1017.88 1017.89 1017.89 1017.90 1017.92 1017.98 1018.09 1018.27 1018.53 1018.86 1019.24 1019.65 1020.05 1020.42 1020.73 1020.97 1021.14 1021.24 1021.30 1021.34 1021.36 1021.40 1021.44 1021.48 1021.51 1021.52 1021.52 1021.49 1021.43 1021.37 1021.30 1021.23 1021.17 1021.12 1021.09 1021.08
1016.34 1016.74 1017.08 1017.38 1017.64 1017.85 1018.03 1018.16 1018.27 1018.34 1018.40 1018.47 1018.55 1018.66 1018.81 1019.02 1019.28 1019.59 1019.92 1020.26 1020.57 1020.85 1021.08 1021.26 1021.39 1021.48 1021.55 1021.60 1021.64 1021.68 1021.70 1021.71 1021.70 1021.68 1021.63 1021.56 1021.48 1021.39 1021.29 1021.19 1021.10 1021.02 1020.96
1016.11 1016.51 1016.90 1017.29 1017.65 1017.98 1018.28 1018.53 1018.73 1018.89 1019.02 1019.11 1019.20 1019.30 1019.41 1019.56 1019.73 1019.94 1020.18 1020.42 1020.67 1020.90 1021.12 1021.30 1021.45 1021.58 1021.68 1021.75 1021.80 1021.84 1021.86 1021.86 1021.84 1021.81 1021.76 1021.69 1021.60 1021.50 1021.39 1021.26 1021.13 1021.01 1020.89
1015.94 1016.33 1016.77 1017.23 1017.69 1018.13 1018.54 1018.90 1019.20 1019.43 1019.61 1019.74 1019.84 1019.91 1019.98 1020.06 1020.15 1020.25 1020.38 1020.53 1020.69 1020.87 1021.04 1021.22 1021.38 1021.53 1021.65 1021.75 1021.83 1021.88 1021.90 1021.91 1021.90 1021.88 1021.84 1021.79 1021.72 1021.62 1021.50 1021.36 1021.20 1021.03 1020.86
1015.85 1016.24 1016.70 1017.21 1017.74 1018.27 1018.76 1019.20 1019.57 1019.86 1020.09 1020.25 1020.36 1020.42 1020.46 1020.48 1020.48 1020.49 1020.52 1020.56 1020.63 1020.73 1020.86 1021.01 1021.17 1021.32 1021.47 1021.59 1021.69 1021.76 1021.81 1021.84 1021.85 1021.86 1021.85 1021.83 1021.78 1021.70 1021.59 1021.44 1021.26 1021.05 1020.83
1015.86 1016.24 1016.71 1017.25 1017.82 1018.39 1018.93 1019.41 1019.82 1020.16 1020.41 1020.60 1020.73 1020.80 1020.81 1020.79 1020.74 1020.67 1020.60 1020.55 1020.52 1020.54 1020.60 1020.70 1020.84 1020.99 1021.14 1021.28 1021.41 1021.51 1021.59 1021.65 1021.71 1021.75 1021.78 1021.80 1021.78 1021.72 1021.62 1021.47 1021.26 1021.02 1020.76
1015.98 1016.36 1016.84 1017.38 1017.95 1018.53 1019.07 1019.56 1019.97 1020.32 1020.60 1020.81 1020.95 1021.04 1021.06 1021.03 1020.94 1020.82 1020.67 1020.53 1020.41 1020.34 1020.32 1020.36 1020.45 1020.58 1020.73 1020.88 1021.03 1021.16 1021.28 1021.38 1021.48 1021.56 1021.63 1021.68 1021.70 1021.66 1021.57 1021.41 1021.19 1020.93 1020.63
1016.23 1016.61 1017.08 1017.61 1018.16 1018.70 1019.21 1019.66 1020.06 1020.40 1020.68 1020.91 1021.08 1021.20 1021.25 1021.23 1021.13 1020.97 1020.77 1020.56 1020.35 1020.19 1020.08 1020.05 1020.08 1020.18 1020.31 1020.46 1020.62 1020.78 1020.92 1021.06 1021.19 1021.31 1021.41 1021.49 1021.52 1021.50 1021.41 1021.25 1021.02 1020.74 1020.41
1016.58 1016.99 1017.45 1017.95 1018.46 1018.95 1019.40 1019.79 1020.14 1020.45 1020.73 1020.97 1021.18 1021.33 1021.42 1021.42 1021.34 1021.17 1020.93 1020.66 1020.38 1020.14 1019.95 1019.84 1019.81 1019.86 1019.96 1020.10 1020.26 1020.42 1020.58 1020.74 1020.89 1021.02 1021.13 1021.21 1021.25 1021.23 1021.14 1020.97 1020.74 1020.44 1020.11
1017.02 1017.44 1017.90 1018.37 1018.83 1019.26 1019.64 1019.97 1020.27 1020.54 1020.80 1021.05 1021.29 1021.48 1021.60 1021.65 1021.58 1021.42 1021.16 1020.85 1020.52 1020.21 1019.95 1019.77 1019.67 1019.66 1019.72 1019.83 1019.97 1020.13 1020.28 1020.43 1020.57 1020.69 1020.79 1020.85 1020.88 1020.84 1020.74 1020.57 1020.33 1020.04 1019.71
1017.49 1017.93 1018.39 1018.84 1019.25 1019.61 1019.93 1020.20 1020.44 1020.68 1020.92 1021.17 1021.42 1021.65 1021.81 1021.88 1021.85 1021.70 1021.45 1021.12 1020.75 1020.40 1020.08 1019.84 1019.68 1019.62 1019.63 1019.69 1019.79 1019.91 1020.03 1020.15 1020.25 1020.33 1020.39 1020.41 1020.40 1020.33 1020.21 1020.04 1019.80 1019.53 1019.22
1017.94 1018.40 1018.86 1019.29 1019.66 1019.98 1020.24 1020.46 1020.66 1020.87 1021.09 1021.33 1021.59 1021.83 1022.02 1022.13 1022.12 1021.99 1021.75 1021.43 1021.05 1020.67 1020.32 1020.03 1019.82 1019.70 1019.65 1019.66 1019.70 1019.76 1019.82 1019.87 1019.90 1019.92 1019.91 1019.88 1019.81 1019.71 1019.56 1019.38 1019.16 1018.90 1018.63
1018.35 1018.82 1019.27 1019.69 1020.04 1020.34 1020.57 1020.76 1020.92 1021.10 1021.30 1021.53 1021.78 1022.02 1022.22 1022.34 1022.36 1022.26 1022.04 1021.74 1021.37 1020.99 1020.62 1020.31 1020.06 1019.88 1019.77 1019.71 1019.67 1019.64 1019.62 1019.58 1019.52 1019.45 1019.36 1019.25 1019.12 1018.96 1018.79 1018.60 1018.39 1018.17 1017.94
1018.71 1019.18 1019.63 1020.04 1020.39 1020.67 1020.89 1021.07 1021.21 1021.37 1021.54 1021.75 1021.97 1022.20 1022.39 1022.52 1022.55 1022.48 1022.29 1022.02 1021.68 1021.32 1020.95 1020.62 1020.34 1020.11 1019.93 1019.78 1019.65 1019.53 1019.40 1019.26 1019.10 1018.92 1018.74 1018.54 1018.33 1018.12 1017.91 1017.70 1017.50 1017.31 1017.14
1019.04 1019.50 1019.95 1020.36 1020.72 1021.01 1021.24 1021.41 1021.55 1021.68 1021.83 1021.99 1022.18 1022.37 1022.54 1022.66 1022.70 1022.65 1022.50 1022.27 1021.96 1021.63 1021.27 1020.93 1020.62 1020.33 1020.08 1019.84 1019.62 1019.39 1019.15 1018.89 1018.62 1018.34 1018.06 1017.77 1017.48 1017.21 1016.96 1016.73 1016.53 1016.36 1016.24
1019.42 1019.85 1020.30 1020.71 1021.09 1021.39 1021.63 1021.81 1021.94 1022.05 1022.16 1022.29 1022.42 1022.57 1022.70 1022.79 1022.83 1022.79 1022.67 1022.47 1022.21 1021.90 1021.56 1021.21 1020.86 1020.52 1020.19 1019.86 1019.52 1019.19 1018.84 1018.48 1018.10 1017.73 1017.35 1016.98 1016.62 1016.28 1015.97 1015.71 1015.50 1015.34 1015.25
1019.87 1020.29 1020.72 1021.15 1021.53 1021.86 1022.11 1022.29 1022.42 1022.50 1022.57 1022.63 1022.71 1022.79 1022.87 1022.92 1022.94 1022.91 1022.81 1022.64 1022.40 1022.11 1021.78 1021.41 1021.03 1020.63 1020.21 1019.79 1019.36 1018.92 1018.48 1018.02 1017.56 1017.11 1016.65 1016.20 1015.78 1015.37 1015.01 1014.70 1014.46 1014.30 1014.22
1020.44 1020.83 1021.25 1021.68 1022.08 1022.41 1022.67 1022.85 1022.96 1023.01 1023.02 1023.03 1023.03 1023.04 1023.06 1023.07 1023.06 1023.01 1022.92 1022.76 1022.54 1022.25 1021.91 1021.52 1021.09 1020.62 1020.14 1019.63 1019.12 1018.60 1018.07 1017.55 1017.03 1016.51 1016.00 1015.50 1015.01 1014.55 1014.13 1013.77 1013.49 1013.30 1013.20
1021.09 1021.46 1021.88 1022.30 1022.70 1023.03 1023.29 1023.45 1023.53 1023.54 1023.50 1023.44 1023.37 1023.31 1023.25 1023.21 1023.16 1023.09 1022.98 1022.82 1022.59 1022.30 1021.93 1021.51 1021.02 1020.50 1019.94 1019.37 1018.79 1018.21 1017.64 1017.07 1016.52 1015.97 1015.43 1014.89 1014.37 1013.86 1013.39 1012.97 1012.64 1012.40 1012.28
1021.78 1022.13 1022.53 1022.94 1023.33 1023.65 1023.89 1024.03 1024.07 1024.03 1023.94 1023.81 1023.67 1023.53 1023.42 1023.31 1023.22 1023.11 1022.97 1022.78 1022.53 1022.21 1021.81 1021.34 1020.81 1020.24 1019.63 1019.01 1018.39 1017.78 1017.19 1016.61 1016.06 1015.51 1014.96 1014.42 1013.87 1013.32 1012.81 1012.34 1011.95 1011.66 1011.49
1022.43 1022.76 1023.13 1023.52 1023.88 1024.18 1024.39 1024.50 1024.50 1024.42 1024.27 1024.08 1023.88 1023.68 1023.50 1023.34 1023.19 1023.03 1022.84 1022.62 1022.33 1021.97 1021.54 1021.03 1020.46 1019.85 1019.21 1018.56 1017.93 1017.33 1016.75 1016.20 1015.66 1015.14 1014.61 1014.07 1013.52 1012.96 1012.41 1011.89 1011.45 1011.10 1010.87
1022.95 1023.25 1023.60 1023.96 1024.28 1024.55 1024.72 1024.79 1024.76 1024.64 1024.44 1024.21 1023.96 1023.71 1023.48 1023.26 1023.05 1022.83 1022.60 1022.32 1021.99 1021.59 1021.12 1020.58 1019.99 1019.36 1018.72 1018.08 1017.47 1016.89 1016.35 1015.84 1015.35 1014.86 1014.37 1013.85 1013.31 1012.74 1012.17 1011.62 1011.13 1010.72 1010.43
1023.29 1023.57 1023.88 1024.20 1024.49 1024.71 1024.85 1024.88 1024.82 1024.67 1024.45 1024.19 1023.90 1023.61 1023.33 1023.06 1022.80 1022.52 1022.23 1021.90 1021.52 1021.08 1020.59 1020.04 1019.44 1018.83 1018.21 1017.60 1017.04 1016.51 1016.02 1015.56 1015.13 1014.69 1014.23 1013.74 1013.21 1012.65 1012.07 1011.49 1010.96 1010.50 1010.15
1023.46 1023.71 1023.99 1024.27 1024.51 1024.69 1024.80 1024.81 1024.73 1024.56 1024.33 1024.05 1023.74 1023.42 1023.10 1022.78 1022.46 1022.13 1021.78 1021.40 1020.98 1020.51 1020.00 1019.45 1018.88 1018.30 1017.73 1017.19 1016.68 1016.21 1015.79 1015.39 1015.00 1014.61 1014.19 1013.72 1013.20 1012.64 1012.05 1011.46 1010.89 1010.38 1009.97
1023.49 1023.72 1023.96 1024.20 1024.41 1024.57 1024.65 1024.64 1024.55 1024.38 1024.15 1023.86 1023.53 1023.19 1022.83 1022.46 1022.08 1021.69 1021.29 1020.86 1020.40 1019.93 1019.42 1018.90 1018.37 1017.85 1017.35 1016.88 1016.44 1016.04 1015.67 1015.32 1014.98 1014.61 1014.21 1013.76 1013.25 1012.68 1012.08 1011.46 1010.86 1010.31 1009.84
Thickness
5736 5732 5727 5723 5722 5720 5718 5717 5717 5718 5717 5715 5716 5716 5713 5709 5705 5702 5698 5696 5694 5692 5690 5688 5686 5685 5684 5682 5681 5680 5679 5678 5676 5675 5674 5673 5672 5671 5670 5670 5669 5668 5668
5735 5730 5724 5721 5718 5716 5713 5712 5713 5712 5710 5709 5708 5707 5704 5701 5697 5695 5692 5689 5687 5686 5684 5682 5680 5678 5677 5675 5674 5673 5671 5670 5668 5667 5666 5664 5663 5663 5662 5662 5662 5661 5661
5732 5726 5721 5716 5712 5709 5707 5706 5706 5705 5703 5702 5700 5698 5695 5693 5690 5686 5683 5682 5680 5679 5676 5674 5672 5670 5669 5667 5665 5664 5662 5661 5659 5657 5656 5655 5654 5653 5652 5652 5652 5652 5652
5731 5724 5718 5711 5706 5703 5700 5697 5697 5695 5693 5691 5689 5687 5685 5683 5681 5679 5676 5674 5673 5672 5670 5667 5665 5662 5660 5658 5656 5654 5652 5650 5648 5646 5645 5643 5642 5641 5640 5640 5640 5641 5641
5728 5722 5714 5706 5699 5695 5691 5689 5686 5685 5681 5679 5678 5677 5676 5674 5673 5672 5670 5668 5665 5665 5663 5662 5659 5655 5653 5650 5647 5644 5642 5639 5637 5635 5633 5631 5629 5628 5627 5626 5626 5626 5628
5724 5718 5709 5702 5695 5688 5681 5678 5674 5673 5670 5668 5669 5668 5667 5667 5666 5666 5664 5663 5660 5658 5656 5654 5652 5649 5646 5642 5639 5635 5632 5629 5626 5623 5620 5617 5615 5613 5612 5611 5611 5611 5612
5721 5714 5705 5697 5690 5683 5676 5671 5666 5663 5660 5660 5658 5658 5660 5661 5660 5660 5658 5656 5654 5653 5650 5647 5644 5642 5638 5634 5631 5626 5622 5618 5614 5610 5606 5603 5600 5598 5596 5595 5595 5595 5596
5713 5707 5700 5692 5685 5678 5672 5667 5662 5658 5654 5652 5650 5649 5648 5651 5652 5654 5651 5648 5647 5645 5642 5639 5636 5633 5629 5625 5621 5616 5612 5607 5603 5597 5591 5587 5583 5581 5579 5578 5578 5578 5578
5705 5700 5694 5687 5680 5674 5668 5663 5659 5654 5649 5646 5645 5642 5638 5638 5641 5644 5643 5641 5639 5636 5632 5628 5625 5622 5619 5615 5610 5605 5600 5595 5590 5584 5577 5571 5567 5563 5561 5560 5560 5560 5561
5697 5692 5687 5680 5674 5669 5663 5658 5652 5647 5644 5639 5636 5634 5632 5629 5625 5627 5630 5631 5629 5625 5622 5619 5615 5610 5605 5600 5596 5592 5586 5580 5573 5567 5561 5555 5550 5547 5544 5542 5541 5541 5542
5687 5682 5677 5672 5666 5660 5655 5650 5644 5640 5637 5633 5630 5627 5624 5621 5618 5613 5613 5615 5614 5613 5611 5607 5603 5598 5593 5588 5582 5577 5571 5563 5555 5548 5542 5537 5533 5530 5527 5525 5524 5523 5523
5675 5671 5667 5662 5657 5651 5646 5641 5636 5632 5628 5624 5621 5619 5615 5611 5608 5605 5601 5599 5598 5597 5595 5591 5586 5582 5578 5572 5566 5560 5552 5545 5537 5531 5525 5520 5516 5512 5509 5507 5506 5505 5505
5664 5660 5656 5651 5646 5641 5636 5631 5627 5622 5618 5614 5609 5606 5602 5598 5596 5592 5588 5585 5583 5581 5577 5573 5570 5566 5559 5552 5545 5538 5532 5526 5520 5514 5508 5504 5499 5496 5493 5491 5489 5488 5487
5654 5649 5644 5640 5635 5630 5625 5621 5616 5611 5606 5601 5598 5593 5588 5584 5580 5576 5572 5568 5565 5564 5560 5555 5552 5547 5541 5533 5525 5518 5513 5507 5501 5496 5491 5487 5483 5480 5478 5475 5473 5472 5471
5641 5636 5632 5627 5622 5617 5612 5608 5603 5598 5593 5589 5584 5580 5574 5569 5565 5560 5555 5550 5546 5545 5544 5538 5533 5528 5522 5515 5507 5501 5496 5491 5485 5480 5476 5473 5470 5468 5466 5464 5462 5461 5460
5629 5624 5619 5614 5609 5604 5599 5595 5590 5585 5580 5575 5570 5565 5559 5554 5548 5543 5538 5534 5529 5526 5527 5523 5515 5508 5502 5495 5490 5485 5480 5476 5473 5469 5466 5464 5461 5459 5458 5457 5455 5453 5452
5615 5610 5605 5600 5595 5590 5585 5580 5576 5571 5566 5560 5554 5549 5543 5538 5532 5526 5521 5517 5513 5508 5505 5504 5496 5490 5483 5478 5474 5469 5466 5464 5462 5460 5458 5457 5455 5454 5452 5451 5450 5448 5446
5600 5595 5590 5585 5580 5575 5570 5565 5560 5555 5550 5544 5538 5533 5527 5522 5516 5511 5505 5500 5495 5489 5485 5484 5479 5472 5467 5463 5460 5458 5456 5454 5453 5452 5451 5450 5450 5449 5448 5447 5446 5445 5443
5584 5579 5574 5569 5564 5560 5555 5550 5544 5539 5533 5528 5523 5518 5513 5507 5502 5496 5489 5484 5479 5474 5468 5464 5463 5458 5455 5452 5450 5448 5446 5445 5444 5444 5444 5445 5445 5445 5444 5444 5443 5443 5441
5567 5563 5558 5553 5549 5543 5537 5531 5526 5522 5518 5513 5508 5504 5499 5494 5489 5482 5476 5470 5466 5459 5454 5450 5449 5448 5445 5443 5441 5439 5439 5438 5437 5436 5437 5437 5438 5438 5439 5440 5440 5440 5439
5550 5546 5541 5537 5532 5524 5515 5510 5506 5505 5501 5498 5495 5491 5486 5482 5477 5468 5463 5457 5451 5447 5443 5440 5439 5439 5438 5436 5433 5431 5431 5431 5431 5431 5431 5431 5431 5432 5433 5434 5436 5437 5437
5534 5530 5525 5520 5514 5505 5497 5492 5488 5486 5485 5484 5482 5478 5473 5471 5466 5458 5452 5447 5441 5438 5435 5433 5433 5432 5432 5430 5428 5426 5425 5425 5427 5427 5424 5424 5424 5425 5427 5429 5432 5433 5434
5517 5513 5508 5503 5496 5486 5481 5477 5474 5472 5471 5471 5469 5466 5462 5459 5454 5448 5443 5440 5436 5434 5432 5430 5429 5429 5427 5426 5425 5423 5421 5419 5419 5420 5419 5419 5420 5420 5422 5424 5426 5428 5429
5502 5497 5492 5487 5481 5472 5466 5463 5460 5461 5462 5461 5458 5456 5452 5448 5444 5437 5434 5433 5433 5432 5431 5430 5428 5426 5425 5423 5421 5419 5417 5416 5416 5415 5414 5413 5414 5414 5417 5419 5422 5423 5425
5487 5483 5477 5472 5467 5458 5453 5450 5448 5449 5452 5450 5448 5447 5443 5439 5434 5430 5429 5430 5431 5431 5431 5430 5427 5425 5424 5421 5418 5415 5414 5413 5413 5411 5409 5406 5407 5408 5412 5416 5417 5419 5421
5472 5469 5463 5459 5454 5449 5442 5439 5436 5438 5439 5438 5438 5437 5435 5432 5428 5426 5425 5426 5428 5430 5430 5429 5428 5426 5423 5420 5416 5411 5409 5408 5407 5407 5405 5401 5401 5402 5406 5411 5413 5416 5418